STARLINK-32251, 60940

Orbit data source: Space-Track

STARLINK-32251, 60940 is a payload satellite owned by SpaceX/Seattle (US) in LEO that was launched on Sat, 31 Aug 2024 UTC via an FALCON 9 launch vehicle from the Air Force Western Test Range (AFWTR). Payloads include a variety of satellites, spacecraft, and rockets equipped with specific instruments for various scientific and technological missions. These include communications satellites like Starlink; space stations such as the ISS; scientific satellites like the Hubble; Earth observation satellites from companies like Planet Labs, Umbra, and HawkEye 360; GPS; miniature CubeSats for education and research; and military/defense satellites.

Loading next visibility...
STARLINK-32251 details
Identifier
60940, 2024-155S
Orbit
LEO
Last TLE update9 hours ago
Origin
Flag of USSpaceX/Seattle (US)
ManufacturerSpaceX/Seattle
MissionOperational spacecraft
Bus & MotorSTARLINK V2M, Unknown motor
Mass730 kg wet, ~700 kg dry
Launch date (UTC)
2024-08-31 (5 months ago)
Launch vehicle
FALCON 9
Launch site
Air Force Western Test Range (AFWTR)
Object type
Payload
Rocket body
Debris
Shape & HBRUnknown
Radar Cross SectionLarge (>1 m²)

Expand to show TLE details & history

TLE from 9 hours ago
0 STARLINK-32251
1 60940U 24155S   25015.11331928  .00001033  00000-0  47026-4 0  9997
2 60940  53.1586 274.0102 0001287  77.2291 282.8854 15.30191734 22141
Epoch: 2025-01-15T02:43Z
Definitive object data (Epoch: 2025-01-15T02:43:10.785Z)
Latitude
Longitude118.40494°
Altitude475.943 km
Speed7.629 km/s
True Right ascension18h 16m 02s
True Declination0° 00' 00"
Sunlit
Object was in daylight at TLE epoch
Visualization TLE readout
Latitude-50.65373°
Longitude2.01648°
Altitude493.626 km
Speed7.617 km/s
Apparent Right ascension04h 32m 09s
Apparent Declination-76° 27' 06"
Sunlit
Object is in daylight
Visualization observer readout
Local Sidereal Time12:20:09
Azimuth197.126° SSW
Elevation-44.86°
Doppler factor1
Orbital elements
Apogee altitude476.378 km
Perigee altitude474.614 km
Semi-major axis6,853.633 km
Eccentricity0.0001287
Inclination53.1586°
RAAN274.0102°
Arg. of periapsis77.2291°
True anomaly282.87102°
Mean anomaly282.8854°
Eccentric anomaly282.87821°
Mean motion3.82527 °/min
BSTAR0.000047026
Orbital period94.11 mins
Loading maneuver chart data...
Loading historical data...
Loading historical data...
Loading historical data...
Loading historical data...
Loading historical data...
Loading historical data...
Loading historical data...

STARLINK-32251 Visibility forecast

Observer location: undefined°, undefined

Span
Click to sort rows by Start time (UTC) header in descending order
Start Az.
Max El. time (UTC)
Max El. Az.
Max El.
End time (UTC)
End Az.
5 mins2025-01-15 20:09:55.545Z244.337° WSW2025-01-15 20:11:55.545Z287.443° WNW40.599°2025-01-15 20:14:55.545Z41.567° NE
4 mins2025-01-16 01:06:55.545Z341.972° N2025-01-16 01:08:55.545Z20.079° NNE18.715°2025-01-16 01:10:55.545Z60.976° ENE
6 mins2025-01-16 02:44:55.545Z305.589° NW2025-01-16 02:46:55.545Z281.239° WNW42.307°2025-01-16 02:50:55.545Z136.179° SSE
|